Total_Precipitation_Accumulation
0.54 0.73 0.75 0.67 0.69 0.76 0.67 0.62 0.74 0.76 0.64 0.77 0.72 0.53 0.43 0.40 0.38 0.40 0.46 0.48 0.44 0.33 0.22 0.15 0.13 0.19 0.24 0.23 0.21 0.27 0.31 0.37 0.36 0.32 0.37 0.51 0.63 0.75 0.88 1.05 1.10 1.32 1.44 1.36
0.62 0.53 0.39 0.44 0.50 0.60 0.62 0.64 0.69 0.65 0.58 0.66 0.72 0.58 0.45 0.36 0.32 0.33 0.36 0.39 0.38 0.30 0.20 0.14 0.11 0.13 0.18 0.21 0.16 0.18 0.21 0.30 0.37 0.39 0.45 0.58 0.77 0.89 0.99 1.14 1.20 1.29 1.32 1.33
0.45 0.37 0.32 0.37 0.43 0.55 0.56 0.63 0.59 0.62 0.67 0.61 0.70 0.75 0.57 0.39 0.34 0.34 0.33 0.34 0.32 0.23 0.19 0.16 0.14 0.12 0.11 0.15 0.12 0.15 0.23 0.36 0.53 0.68 0.92 1.17 1.46 1.60 1.50 1.37 1.44 1.53 1.62 1.58
0.55 0.38 0.33 0.38 0.42 0.48 0.64 0.43 0.41 0.50 0.72 0.74 0.61 0.80 0.59 0.40 0.39 0.40 0.36 0.30 0.27 0.23 0.21 0.18 0.15 0.14 0.13 0.19 0.25 0.34 0.45 0.61 0.78 0.98 1.20 1.46 1.71 1.90 1.91 1.93 1.97 1.95 1.90 1.79
0.59 0.38 0.35 0.40 0.36 0.39 0.51 0.43 0.41 0.47 0.64 0.62 0.56 0.59 0.51 0.42 0.48 0.49 0.47 0.41 0.36 0.33 0.31 0.30 0.28 0.25 0.25 0.36 0.49 0.59 0.81 0.97 1.11 1.17 1.26 1.48 1.58 1.66 1.78 1.92 1.99 2.00 1.92 1.80
0.48 0.34 0.32 0.34 0.30 0.32 0.42 0.50 0.53 0.58 0.66 0.62 0.43 0.44 0.53 0.44 0.48 0.58 0.54 0.47 0.42 0.38 0.36 0.38 0.41 0.41 0.44 0.65 0.88 1.00 1.10 1.20 1.19 1.17 1.19 1.31 1.46 1.55 1.65 1.81 1.87 1.82 1.69 1.65
0.46 0.39 0.30 0.29 0.35 0.34 0.40 0.60 0.75 0.76 0.68 0.49 0.28 0.34 0.45 0.36 0.34 0.42 0.45 0.42 0.38 0.31 0.30 0.35 0.43 0.55 0.74 0.98 1.19 1.32 1.31 1.22 1.07 1.05 1.12 1.17 1.32 1.49 1.55 1.56 1.58 1.57 1.50 1.43
0.38 0.44 0.29 0.25 0.28 0.31 0.35 0.44 0.65 0.71 0.60 0.43 0.32 0.46 0.49 0.36 0.27 0.24 0.24 0.26 0.31 0.34 0.40 0.42 0.47 0.65 0.94 1.19 1.42 1.68 1.65 1.42 1.20 1.14 1.19 1.22 1.32 1.40 1.40 1.31 1.32 1.35 1.31 1.25
0.28 0.30 0.25 0.26 0.26 0.25 0.31 0.33 0.34 0.51 0.44 0.40 0.35 0.41 0.37 0.26 0.20 0.19 0.22 0.27 0.36 0.42 0.51 0.59 0.69 0.78 1.00 1.22 1.54 1.82 1.87 1.66 1.49 1.41 1.34 1.35 1.27 1.20 1.13 1.04 1.04 1.06 1.09 1.02
0.25 0.29 0.28 0.27 0.30 0.26 0.25 0.27 0.30 0.52 0.58 0.54 0.40 0.41 0.34 0.22 0.17 0.19 0.30 0.35 0.42 0.50 0.52 0.67 0.91 1.12 1.36 1.31 1.44 1.68 1.62 1.53 1.50 1.51 1.49 1.39 1.25 1.13 1.09 1.02 1.01 0.97 1.01 0.94
0.19 0.29 0.32 0.30 0.27 0.23 0.23 0.26 0.28 0.38 0.41 0.56 0.64 0.54 0.31 0.27 0.27 0.32 0.41 0.44 0.49 0.56 0.60 0.74 0.91 1.06 1.24 1.35 1.35 1.40 1.39 1.39 1.35 1.28 1.22 1.10 0.90 0.80 0.81 0.83 0.81 0.75 0.78 0.74
0.18 0.27 0.32 0.26 0.20 0.21 0.26 0.29 0.31 0.48 0.50 0.50 0.71 0.73 0.41 0.40 0.44 0.53 0.60 0.64 0.68 0.69 0.73 0.83 0.90 1.04 1.11 1.12 1.15 1.23 1.16 1.14 1.10 1.00 0.90 0.77 0.63 0.58 0.62 0.64 0.60 0.52 0.54 0.50
0.20 0.32 0.40 0.37 0.30 0.28 0.41 0.46 0.36 0.33 0.47 0.59 0.78 0.78 0.57 0.57 0.64 0.75 0.85 0.86 0.81 0.75 0.72 0.78 0.82 0.91 0.96 1.00 1.06 1.14 1.08 1.08 1.06 0.92 0.77 0.69 0.62 0.60 0.59 0.53 0.48 0.40 0.38 0.41
0.20 0.29 0.29 0.30 0.27 0.29 0.47 0.53 0.42 0.40 0.55 0.58 0.62 0.72 0.74 0.84 0.86 0.88 0.89 0.86 0.76 0.64 0.55 0.51 0.49 0.59 0.64 0.69 0.78 0.88 0.85 1.03 1.17 1.09 0.89 0.77 0.71 0.61 0.52 0.42 0.40 0.36 0.41 0.45
0.19 0.26 0.21 0.13 0.11 0.15 0.28 0.35 0.31 0.34 0.38 0.44 0.47 0.56 0.71 0.82 0.86 0.83 0.74 0.59 0.50 0.43 0.33 0.27 0.27 0.34 0.39 0.49 0.53 0.61 0.73 0.94 0.98 0.80 0.59 0.52 0.50 0.46 0.37 0.32 0.31 0.30 0.30 0.28
0.17 0.22 0.19 0.14 0.09 0.11 0.12 0.11 0.11 0.13 0.17 0.22 0.32 0.46 0.55 0.60 0.59 0.54 0.43 0.30 0.27 0.24 0.19 0.16 0.17 0.22 0.23 0.25 0.32 0.43 0.50 0.55 0.53 0.45 0.38 0.34 0.31 0.27 0.25 0.24 0.22 0.19 0.17 0.15
0.18 0.23 0.29 0.24 0.11 0.12 0.11 0.05 0.09 0.15 0.16 0.23 0.38 0.45 0.39 0.37 0.36 0.35 0.26 0.17 0.16 0.13 0.12 0.10 0.11 0.14 0.14 0.15 0.17 0.17 0.21 0.27 0.26 0.20 0.18 0.19 0.20 0.17 0.15 0.15 0.16 0.17 0.16 0.13
0.15 0.24 0.33 0.30 0.25 0.22 0.08 0.04 0.06 0.10 0.15 0.22 0.31 0.30 0.24 0.21 0.18 0.17 0.13 0.10 0.10 0.09 0.08 0.08 0.08 0.10 0.10 0.12 0.14 0.15 0.14 0.16 0.20 0.16 0.13 0.13 0.15 0.16 0.17 0.18 0.18 0.15 0.13 0.12
0.11 0.23 0.36 0.35 0.36 0.18 0.05 0.04 0.04 0.05 0.07 0.08 0.10 0.11 0.09 0.07 0.09 0.10 0.08 0.08 0.08 0.07 0.06 0.07 0.08 0.10 0.11 0.13 0.15 0.13 0.11 0.11 0.13 0.14 0.14 0.13 0.15 0.16 0.15 0.15 0.15 0.13 0.12 0.12
0.14 0.20 0.31 0.34 0.35 0.23 0.08 0.05 0.05 0.05 0.07 0.05 0.04 0.04 0.04 0.04 0.09 0.10 0.08 0.06 0.07 0.08 0.07 0.08 0.10 0.13 0.13 0.14 0.14 0.12 0.11 0.10 0.10 0.12 0.14 0.16 0.17 0.15 0.14 0.16 0.18 0.15 0.13 0.13
0.19 0.22 0.24 0.29 0.33 0.16 0.07 0.06 0.07 0.10 0.09 0.05 0.04 0.04 0.04 0.06 0.08 0.07 0.06 0.07 0.07 0.10 0.11 0.11 0.13 0.13 0.13 0.14 0.15 0.13 0.11 0.10 0.12 0.13 0.14 0.14 0.14 0.14 0.16 0.18 0.21 0.20 0.17 0.15
0.24 0.25 0.23 0.25 0.30 0.15 0.06 0.06 0.08 0.08 0.05 0.04 0.04 0.04 0.04 0.05 0.06 0.05 0.06 0.06 0.07 0.09 0.11 0.12 0.13 0.11 0.12 0.12 0.12 0.11 0.10 0.13 0.13 0.13 0.14 0.13 0.13 0.15 0.18 0.19 0.17 0.15 0.14 0.14
0.19 0.19 0.21 0.20 0.15 0.09 0.08 0.08 0.07 0.06 0.05 0.04 0.04 0.04 0.04 0.04 0.04 0.05 0.05 0.05 0.06 0.08 0.09 0.10 0.11 0.12 0.13 0.15 0.14 0.15 0.13 0.15 0.13 0.12 0.14 0.16 0.17 0.19 0.20 0.20 0.18 0.17 0.15 0.15
0.16 0.15 0.18 0.16 0.09 0.07 0.08 0.08 0.07 0.06 0.06 0.05 0.03 0.03 0.04 0.04 0.05 0.04 0.04 0.05 0.06 0.08 0.08 0.10 0.12 0.14 0.15 0.18 0.19 0.19 0.17 0.15 0.14 0.13 0.15 0.18 0.20 0.22 0.23 0.21 0.19 0.18 0.17 0.19
0.17 0.15 0.15 0.14 0.10 0.08 0.08 0.07 0.06 0.05 0.06 0.06 0.04 0.04 0.04 0.04 0.04 0.04 0.04 0.05 0.06 0.06 0.06 0.08 0.10 0.12 0.15 0.16 0.16 0.16 0.14 0.13 0.12 0.14 0.16 0.20 0.21 0.23 0.24 0.23 0.22 0.22 0.21 0.22
0.16 0.16 0.17 0.16 0.14 0.14 0.10 0.09 0.07 0.07 0.09 0.07 0.07 0.06 0.06 0.05 0.05 0.06 0.07 0.09 0.08 0.07 0.07 0.07 0.10 0.12 0.13 0.13 0.12 0.12 0.13 0.13 0.12 0.14 0.16 0.18 0.21 0.22 0.23 0.26 0.26 0.27 0.26 0.26